Weather History for Cleveland, OH

Change the Weather History Date:

Monday, July 8, 2013

  Actual Average Record
Temperature  
Mean Temperature 76 °F 74 °F  
Max Temperature 86 °F 83 °F 99 °F (1988)
Min Temperature 66 °F 64 °F 45 °F (1984)
Degree Days  
Heating Degree Days 0 0  
Month to date heating degree days 0 0  
Since 1 June heating degree days 39 42  
Since 1 July heating degree days 0 0  
Cooling Degree Days 11 9  
Month to date cooling degree days 76 67  
Year to date cooling degree days 354 294  
Since 1 June cooling degree days 240 235  
Growing Degree Days 26 (Base 50)    
Moisture  
Dew Point 67 °F    
Average Humidity 74    
Maximum Humidity 90    
Minimum Humidity 57    
Precipitation  
Precipitation 0.54 in 0.10 in 1.45 in (1957)
Month to date precipitation 1.13 0.87  
Year to date precipitation 21.62 19.44  
Snow  
Snow 0.00 in 0.00 in - ()
Month to date snowfall 0.0 0.0  
Since 1 June snowfall 0.0 0.0  
Since 1 July snowfall 0.0 0.0  
Snow Depth 0.00 in    
Sea Level Pressure  
Sea Level Pressure 30.08 in    
Wind  
Wind Speed 9 mph (SSW)    
Max Wind Speed 20 mph    
Max Gust Speed 24 mph    
Visibility 8 miles    
Events Rain , Thunderstorm    
T = Trace of Precipitation, MM = Missing Value Source: NWS Daily Summary

Daily Weather History Graph

Daily Weather History Graph

Search for Another Location

Airport:

Trip Planner

Search our weather history database for the weather conditions in past years. The results will help you decide how hot, cold, wet, or windy it might be!

Date:

Astronomy

Jul. 08, 2013 Rise Set
Actual Time 6:01 AM EDT 9:02 PM EDT
Civil Twilight 5:28 AM EDT 9:36 PM EDT
Nautical Twilight 4:46 AM EDT 10:18 PM EDT
Astronomical Twilight 3:56 AM EDT 11:08 PM EDT
Moon 6:31 AM EDT (7/8) 9:03 PM EDT (7/8)
Length of Visible Light 16h 07m
Length of Day
15h 00m
New Moon, 0% of the Moon is Illuminated
Jul 8
New Moon
Jul 15
First Quarter
Jul 22
Full
Jul 29
Last Quarter
Aug 6
New

Hourly Weather History & Observations

Time (EDT) Temp. Heat Index Dew Point Humidity Pressure Visibility Wind Dir Wind Speed Gust Speed Precip Events Conditions
12:51 AM 69.1 °F - 63.0 °F 81% 30.07 in 10.0 mi WSW 5.8 mph - N/A   Overcast
1:51 AM 68.0 °F - 63.0 °F 84% 30.07 in 10.0 mi South 4.6 mph - N/A   Mostly Cloudy
2:51 AM 68.0 °F - 62.1 °F 81% 30.08 in 10.0 mi SSW 4.6 mph - N/A   Overcast
3:51 AM 66.9 °F - 62.1 °F 84% 30.07 in 10.0 mi SSW 6.9 mph - N/A   Mostly Cloudy
4:51 AM 66.0 °F - 62.1 °F 87% 30.07 in 10.0 mi SW 5.8 mph - N/A   Mostly Cloudy
5:51 AM 66.0 °F - 62.1 °F 87% 30.08 in 10.0 mi South 4.6 mph - N/A   Mostly Cloudy
6:51 AM 66.0 °F - 61.0 °F 84% 30.09 in 10.0 mi SSW 5.8 mph - N/A   Scattered Clouds
7:51 AM 70.0 °F - 63.0 °F 78% 30.09 in 10.0 mi SSW 6.9 mph - N/A   Mostly Cloudy
8:51 AM 71.1 °F - 64.9 °F 81% 30.11 in 10.0 mi SSW 6.9 mph - 0.00 in   Mostly Cloudy
9:51 AM 73.9 °F - 66.0 °F 76% 30.11 in 10.0 mi SSW 9.2 mph - N/A   Scattered Clouds
10:51 AM 79.0 °F - 68.0 °F 69% 30.10 in 10.0 mi SW 10.4 mph - N/A   Scattered Clouds
11:51 AM 82.0 °F 85.9 °F 70.0 °F 67% 30.10 in 10.0 mi WSW 10.4 mph - N/A   Scattered Clouds
12:51 PM 82.0 °F 85.5 °F 69.1 °F 65% 30.09 in 10.0 mi WSW 11.5 mph - N/A   Mostly Cloudy
1:51 PM 84.9 °F 89.4 °F 70.0 °F 61% 30.08 in 10.0 mi SW 10.4 mph - N/A   Scattered Clouds
2:51 PM 84.9 °F 88.8 °F 69.1 °F 59% 30.04 in 10.0 mi SSW 9.2 mph - N/A   Mostly Cloudy
3:51 PM 86.0 °F 90.1 °F 69.1 °F 57% 30.04 in 10.0 mi SSW 13.8 mph - N/A   Mostly Cloudy
4:51 PM 82.9 °F 86.5 °F 69.1 °F 63% 30.05 in 10.0 mi SW 12.7 mph - N/A   Overcast
5:25 PM 81.0 °F 84.9 °F 71.1 °F 72% 30.06 in 10.0 mi WSW 17.3 mph 21.9 mph 0.00 in Rain , Thunderstorm Light Thunderstorms and Rain
5:51 PM 75.0 °F - 66.0 °F 73% 30.05 in 10.0 mi SW 8.1 mph - 0.00 in Rain , Thunderstorm Light Thunderstorms and Rain
6:05 PM 73.9 °F - 64.9 °F 73% 30.06 in 10.0 mi SW 8.1 mph - 0.00 in Rain Light Rain
6:51 PM 73.9 °F - 66.9 °F 79% 30.05 in 10.0 mi SSE 5.8 mph - 0.01 in   Overcast
7:51 PM 73.0 °F - 69.1 °F 87% 30.07 in 8.0 mi West 13.8 mph - 0.06 in Rain Light Rain
8:01 PM 73.0 °F - 69.1 °F 87% 30.09 in 4.0 mi West 9.2 mph - 0.02 in Rain , Thunderstorm Thunderstorms and Rain
8:04 PM 73.0 °F - 69.1 °F 87% 30.10 in 4.0 mi WSW 8.1 mph - 0.03 in Rain , Thunderstorm Thunderstorms and Rain
8:18 PM 72.0 °F - 69.1 °F 91% 30.10 in 5.0 mi West 9.2 mph - 0.05 in Rain , Thunderstorm Light Thunderstorms and Rain
8:20 PM 72.0 °F - 69.1 °F 91% 30.10 in 5.0 mi WSW 8.1 mph - 0.05 in Rain Light Rain
8:26 PM 72.0 °F - 69.1 °F 91% 30.10 in 4.0 mi West 5.8 mph - 0.07 in Rain Rain
8:33 PM 72.0 °F - 70.0 °F 93% 30.09 in 3.0 mi South 4.6 mph - 0.10 in Rain Rain
8:43 PM 71.1 °F - 68.0 °F 90% 30.08 in 4.0 mi South 5.8 mph - 0.13 in Rain Light Rain
8:51 PM 71.1 °F - 68.0 °F 90% 30.07 in 6.0 mi SSE 8.1 mph - 0.14 in Rain Light Rain
9:51 PM 70.0 °F - 66.9 °F 90% 30.07 in 7.0 mi SE 9.2 mph - 0.00 in Rain Light Rain
10:51 PM 70.0 °F - 66.9 °F 90% 30.08 in 10.0 mi South 8.1 mph - 0.01 in Rain Light Rain
11:34 PM 70.0 °F - 66.9 °F 90% 30.09 in 2.5 mi SSE 5.8 mph - 0.07 in Rain Heavy Rain
11:51 PM 70.0 °F - 66.9 °F 90% 30.06 in 3.0 mi SSE 10.4 mph - 0.30 in Rain Rain